N9LYA-3 Weather Reports


time (UTC)temp
F
wind
direction
speed
knots
gust
knots
rain 1hr
in
rain 24hr
in
rain mn
in
humidity
%
barometer
mb
20260905172953 93 196 0.0 2.6 0.00 0.00 0.00 61 1013.7
20260905172653 93 196 0.0 2.6 0.00 0.00 0.00 61 1013.7
20260905172351 93 71 0.0 0.0 0.00 0.00 0.00 61 1013.7
20260905172053 93 71 0.0 0.0 0.00 0.00 0.00 61 1013.7
20260905171753 91 193 0.0 0.0 0.00 0.00 0.00 61 1013.7
20260905171451 91 134 0.0 0.0 0.00 0.00 0.00 61 1013.7
20260905171151 91 134 0.0 0.0 0.00 0.00 0.00 61 1013.7
20260905170553 91 202 0.0 0.0 0.00 0.00 0.00 61 1013.8
20260905170252 91 216 0.0 4.3 0.00 0.00 0.00 61 1013.8
20260905165951 91 185 0.0 5.2 0.00 0.00 0.00 61 1013.8
20260905165653 91 185 0.0 5.2 0.00 0.00 0.00 61 1013.8
20260905165353 91 199 0.0 0.0 0.00 0.00 0.00 61 1014.8
20260905165051 91 199 0.0 0.0 0.00 0.00 0.00 61 1014.8
20260905164753 91 110 0.0 2.6 0.00 0.00 0.00 61 1014.8
20260905164453 89 134 0.0 0.0 0.00 0.00 0.00 61 1014.8
20260905164153 89 134 0.0 0.0 0.00 0.00 0.00 61 1014.8
20260905163851 89 191 0.0 0.0 0.00 0.00 0.00 61 1014.9
20260905163553 89 191 0.0 0.0 0.00 0.00 0.00 61 1014.9
20260905163251 89 130 0.0 1.7 0.00 0.00 0.00 61 1014.9
20260905162951 89 179 0.0 0.0 0.00 0.00 0.00 61 1014.9
20260905162651 89 179 0.0 0.0 0.00 0.00 0.00 61 1014.9
20260905162351 89 153 0.0 0.0 0.00 0.00 0.00 61 1014.9
20260905162051 89 153 0.0 0.0 0.00 0.00 0.00 61 1014.9
20260905161751 89 151 0.0 1.7 0.00 0.00 0.00 61 1014.9
20260905161153 89 155 0.0 0.0 0.00 0.00 0.00 61 1014.9
20260905160851 89 130 0.0 3.5 0.00 0.00 0.00 61 1014.9
20260905160251 89 232 0.0 0.0 0.00 0.00 0.00 61 1014.9
20260905155951 87 125 0.0 3.5 0.00 0.00 0.00 61 1014.9
20260905155652 87 125 0.0 3.5 0.00 0.00 0.00 61 1014.9
20260905155351 89 148 0.0 2.6 0.00 0.00 0.00 63 1014.9
20260905155051 89 148 0.0 2.6 0.00 0.00 0.00 63 1014.9
20260905154753 87 194 0.0 2.6 0.00 0.00 0.00 61 1014.9
20260905154153 87 202 0.0 4.3 0.00 0.00 0.00 63 1014.9
20260905153853 87 148 0.0 1.7 0.00 0.00 0.00 63 1015.0
20260905153553 87 148 0.0 1.7 0.00 0.00 0.00 63 1015.0
20260905153252 87 187 0.0 0.0 0.00 0.00 0.00 63 1015.0
20260905152951 86 180 0.0 2.6 0.00 0.00 0.00 63 1015.0
20260905152653 86 180 0.0 2.6 0.00 0.00 0.00 63 1015.0
20260905152051 86 113 0.0 2.6 0.00 0.00 0.00 65 1015.0
20260905151751 86 76 0.0 1.7 0.00 0.00 0.00 65 1015.1
20260905151451 86 82 0.0 0.0 0.00 0.00 0.00 65 1015.1
20260905151153 86 82 0.0 0.0 0.00 0.00 0.00 65 1015.1
20260905150551 86 136 0.0 6.1 0.00 0.00 0.00 65 1015.1
20260905150253 86 175 0.0 1.7 0.00 0.00 0.00 65 1015.1
20260905145953 84 122 1.7 5.2 0.00 0.00 0.00 65 1015.1
20260905145653 84 122 1.7 5.2 0.00 0.00 0.00 65 1015.1
20260905145351 84 150 0.0 5.2 0.00 0.00 0.00 67 1015.1
20260905145051 84 150 0.0 5.2 0.00 0.00 0.00 67 1015.1
20260905144751 84 81 0.0 0.0 0.00 0.00 0.00 69 1015.1
20260905144453 82 184 0.0 3.5 0.00 0.00 0.00 69 1015.2
20260905144153 82 184 0.0 3.5 0.00 0.00 0.00 69 1015.2
20260905143851 82 199 0.0 2.6 0.00 0.00 0.00 71 1016.2
20260905143251 82 218 0.0 1.7 0.00 0.00 0.00 69 1016.2
20260905142951 82 128 0.0 0.0 0.00 0.00 0.00 76 1016.2
20260905142652 82 128 0.0 0.0 0.00 0.00 0.00 76 1016.2
20260905142351 82 151 0.0 0.0 0.00 0.00 0.00 78 1016.2
20260905142051 82 151 0.0 0.0 0.00 0.00 0.00 78 1016.2
20260905141751 80 111 0.0 2.6 0.00 0.00 0.00 84 1016.3
20260905141452 80 189 0.0 3.5 0.00 0.00 0.00 86 1016.3
20260905141153 80 189 0.0 3.5 0.00 0.00 0.00 86 1016.3
20260905140852 78 135 0.0 1.7 0.00 0.00 0.00 88 1016.3
20260905135951 78 146 0.0 0.0 0.00 0.00 0.00 88 1016.4
20260905135651 78 146 0.0 0.0 0.00 0.00 0.00 88 1016.4
20260905135351 78 131 0.0 2.6 0.00 0.00 0.00 86 1016.4
20260905135051 78 131 0.0 2.6 0.00 0.00 0.00 86 1016.4
20260905134751 78 27 0.0 7.0 0.00 0.00 0.00 86 1016.3
20260905134151 78 70 0.0 0.0 0.00 0.00 0.00 84 1016.3
20260905133851 80 99 0.0 4.3 0.00 0.00 0.00 82 1016.3
20260905133551 80 99 0.0 4.3 0.00 0.00 0.00 82 1016.3
20260905132951 80 141 0.0 2.6 0.00 0.00 0.00 84 1016.3
20260905132051 80 115 0.0 8.7 0.00 0.00 0.00 88 1016.3
20260905131751 80 54 0.0 7.0 0.00 0.00 0.00 95 1016.3
20260905131451 78 49 0.0 2.6 0.00 0.00 0.00 95 1016.3
20260905130851 78 44 0.0 2.6 0.00 0.00 0.00 93 1016.4
20260905130551 78 44 0.0 2.6 0.00 0.00 0.00 93 1016.4
20260905130253 78 40 0.0 1.7 0.00 0.00 0.00 91 1016.4
20260905125951 78 91 0.0 6.1 0.00 0.00 0.00 88 1016.3
20260905125652 78 91 0.0 6.1 0.00 0.00 0.00 88 1016.3
20260905125351 80 35 0.0 4.3 0.00 0.00 0.00 88 1015.3
20260905125051 80 35 0.0 4.3 0.00 0.00 0.00 88 1015.3
20260905124751 80 216 0.0 0.0 0.00 0.00 0.00 99 1015.3
20260905124451 80 216 0.0 0.0 0.00 0.00 0.00 99 1015.3
20260905124152 80 216 0.0 0.0 0.00 0.00 0.00 99 1015.3
20260905123851 80 216 0.0 0.0 0.00 0.00 0.00 99 1015.3
20260905123551 80 216 0.0 0.0 0.00 0.00 0.00 99 1015.3
20260905123252 78 216 0.0 0.0 0.00 0.00 0.00 99 1015.3
20260905122951 78 216 0.0 0.0 0.00 0.00 0.00 99 1015.4
20260905122051 77 216 0.0 0.0 0.00 0.00 0.00 99 1015.4
20260905121751 77 216 0.0 0.0 0.00 0.00 0.00 99 1015.5
20260905121451 75 216 0.0 0.0 0.00 0.00 0.00 99 1015.5
20260905121152 75 216 0.0 0.0 0.00 0.00 0.00 99 1015.5
20260905120851 75 216 0.0 0.0 0.00 0.00 0.00 99 1015.5
20260905120551 75 216 0.0 0.0 0.00 0.00 0.00 99 1015.5
20260905120251 75 216 0.0 0.0 0.00 0.00 0.00 99 1015.5
20260905115951 75 216 0.0 0.0 0.00 0.00 0.00 99 1015.5
20260905115651 75 216 0.0 0.0 0.00 0.00 0.00 99 1015.5
20260905115351 75 216 0.0 0.0 0.00 0.00 0.00 99 1014.5
20260905115051 75 216 0.0 0.0 0.00 0.00 0.00 99 1014.5
20260905114751 75 216 0.0 0.0 0.00 0.00 0.00 99 1014.5
20260905114451 75 216 0.0 0.0 0.00 0.00 0.00 99 1014.5
20260905114152 75 216 0.0 0.0 0.00 0.00 0.00 99 1014.5
20260905113851 75 216 0.0 0.0 0.00 0.00 0.00 99 1014.5
20260905113551 75 216 0.0 0.0 0.00 0.00 0.00 99 1014.5
20260905113251 75 216 0.0 2.6 0.00 0.00 0.00 99 1014.5
20260905112951 75 198 0.0 0.0 0.00 0.00 0.00 99 1014.5
20260905112652 75 198 0.0 0.0 0.00 0.00 0.00 99 1014.5
20260905112352 75 203 0.0 0.0 0.00 0.00 0.00 99 1014.5
20260905112051 75 203 0.0 0.0 0.00 0.00 0.00 99 1014.5
20260905111752 75 203 0.0 0.0 0.00 0.00 0.00 99 1014.5
20260905111451 75 203 0.0 0.0 0.00 0.00 0.00 99 1014.5
20260905110552 75 203 0.0 0.0 0.00 0.00 0.00 99 1014.5
20260905110251 75 203 0.0 0.0 0.00 0.00 0.00 99 1014.5
20260905105952 75 203 0.0 0.0 0.00 0.00 0.00 99 1014.5
20260905104751 75 203 0.0 0.0 0.00 0.00 0.00 99 1014.5
20260905104151 75 203 0.0 0.0 0.00 0.00 0.00 99 1014.5
20260905103851 75 203 0.0 0.0 0.00 0.00 0.00 99 1014.5
20260905103551 75 203 0.0 0.0 0.00 0.00 0.00 99 1014.5
20260905102951 75 204 0.0 0.0 0.00 0.00 0.00 99 1014.5
20260905102052 75 203 0.0 0.0 0.00 0.00 0.00 99 1014.5
20260905101153 75 203 0.0 0.0 0.00 0.00 0.00 99 1014.5
20260905100551 75 203 0.0 0.0 0.00 0.00 0.00 99 1014.5
20260905100252 75 203 0.0 0.0 0.00 0.00 0.00 99 1014.5
20260905095951 75 203 0.0 0.0 0.00 0.00 0.00 99 1014.5
20260905095051 75 203 0.0 0.0 0.00 0.00 0.00 99 1014.5
20260905094753 75 203 0.0 0.0 0.00 0.00 0.00 99 1014.5
20260905094451 75 203 0.0 0.0 0.00 0.00 0.00 99 1014.5
20260905094151 75 203 0.0 0.0 0.00 0.00 0.00 99 1014.5
20260905093851 75 203 0.0 0.0 0.00 0.00 0.00 99 1014.5
20260905093251 75 203 0.0 0.0 0.00 0.00 0.00 99 1014.5
20260905092951 75 203 0.0 0.0 0.00 0.00 0.00 99 1014.5
20260905092351 75 203 0.0 0.0 0.00 0.00 0.00 99 1014.5
20260905091751 75 203 0.0 0.0 0.00 0.00 0.00 99 1014.4
20260905091451 75 203 0.0 0.0 0.00 0.00 0.00 99 1014.4
20260905090851 75 203 0.0 0.0 0.00 0.00 0.00 99 1014.4
20260905090252 75 203 0.0 0.0 0.00 0.00 0.00 99 1014.4
20260905085351 77 203 0.0 0.0 0.00 0.00 0.00 99 1013.4
20260905085051 77 203 0.0 0.0 0.00 0.00 0.00 99 1013.4
20260905084752 77 202 0.0 0.0 0.00 0.00 0.00 99 1013.4
20260905084451 77 202 0.0 0.0 0.00 0.00 0.00 99 1013.4
20260905083251 77 202 0.0 0.0 0.00 0.00 0.00 99 1013.4
20260905082652 77 202 0.0 0.0 0.00 0.00 0.00 99 1013.4
20260905082510 77 202 0.0 0.0 0.00 0.00 0.00 99 1013.4
20260905082351 77 202 0.0 0.0 0.00 0.00 0.00 99 1013.4
20260905082051 77 202 0.0 0.0 0.00 0.00 0.00 99 1013.4
20260905081752 77 202 0.0 0.0 0.00 0.00 0.00 99 1013.4
20260905081451 77 202 0.0 0.0 0.00 0.00 0.00 99 1013.4
20260905081151 77 202 0.0 0.0 0.00 0.00 0.00 99 1013.4
20260905080851 77 202 0.0 0.0 0.00 0.00 0.00 99 1013.4
20260905075954 77 198 0.0 0.0 0.00 0.00 0.00 99 1013.4
20260905075923 77 198 0.0 0.0 0.00 0.00 0.00 99 1013.4
20260905075652 77 198 0.0 0.0 0.00 0.00 0.00 99 1013.4
20260905075351 77 229 0.0 0.0 0.00 0.00 0.00 99 1013.4
20260905075052 77 229 0.0 0.0 0.00 0.00 0.00 99 1013.4
20260905074752 77 229 0.0 0.0 0.00 0.00 0.00 99 1013.4
20260905073851 77 229 0.0 0.0 0.00 0.00 0.00 99 1013.4
20260905073551 77 229 0.0 0.0 0.00 0.00 0.00 99 1013.4
20260905072951 77 229 0.0 0.0 0.00 0.00 0.00 99 1013.4
20260905072652 77 229 0.0 0.0 0.00 0.00 0.00 99 1013.4
20260905072051 77 229 0.0 0.0 0.00 0.00 0.00 99 1014.4
20260905071751 77 229 0.0 0.0 0.00 0.00 0.00 99 1014.4
20260905071451 77 229 0.0 0.0 0.00 0.00 0.00 99 1014.4
20260905070851 77 229 0.0 0.0 0.00 0.00 0.00 99 1014.4
20260905070551 77 229 0.0 0.0 0.00 0.00 0.00 99 1014.4
20260905070252 77 229 0.0 0.0 0.00 0.00 0.00 99 1014.4
20260905065951 77 229 0.0 0.0 0.00 0.00 0.00 99 1014.4
20260905065651 77 229 0.0 0.0 0.00 0.00 0.00 99 1014.4
20260905065351 77 229 0.0 0.0 0.00 0.00 0.00 99 1014.4
20260905065051 77 229 0.0 0.0 0.00 0.00 0.00 99 1014.4
20260905064451 77 229 0.0 0.0 0.00 0.00 0.00 99 1014.4
20260905062952 77 229 0.0 0.0 0.00 0.00 0.00 99 1014.4
20260905062351 77 229 0.0 0.0 0.00 0.00 0.00 99 1014.4
20260905062051 77 229 0.0 0.0 0.00 0.00 0.00 99 1014.4
20260905061751 77 229 0.0 0.0 0.00 0.00 0.00 99 1014.4
20260905061152 77 229 0.0 0.0 0.00 0.00 0.00 99 1014.4
20260905060253 77 229 0.0 1.7 0.00 0.00 0.00 99 1014.4
20260905055653 78 228 0.0 0.0 0.00 0.00 0.00 99 1014.4
20260905055353 78 228 0.0 0.0 0.00 0.00 0.00 99 1014.4
20260905055053 78 228 0.0 0.0 0.00 0.00 0.00 99 1014.4
20260905053553 78 228 0.0 0.0 0.00 0.00 0.00 99 1014.3
20260905053253 78 228 0.0 0.0 0.00 0.00 0.00 99 1014.3
20260905052951 78 229 0.0 0.0 0.00 0.00 0.00 99 1014.3
20260905052052 78 228 0.0 0.0 0.00 0.00 0.00 99 1014.3
20260905051451 78 228 0.0 0.0 0.00 0.00 0.00 99 1014.4
20260905051151 78 228 0.0 0.0 0.00 0.00 0.00 99 1014.4
20260905050851 78 228 0.0 0.0 0.00 0.00 0.00 99 1014.4
20260905050551 78 228 0.0 0.0 0.00 0.00 0.00 99 1014.4
20260905050251 78 228 0.0 0.0 0.00 0.00 0.00 99 1014.4
20260905045951 78 228 0.0 0.0 0.00 0.00 0.00 99 1014.3
20260905045652 78 228 0.0 0.0 0.00 0.00 0.00 99 1014.3
20260905045351 78 228 0.0 0.0 0.00 0.00 0.00 99 1014.3
20260905045051 78 228 0.0 0.0 0.00 0.00 0.00 99 1014.3
20260905044751 78 228 0.0 0.0 0.00 0.00 0.00 99 1014.3
20260905044451 78 228 0.0 0.0 0.00 0.00 0.00 99 1014.3
20260905043851 78 228 0.0 0.0 0.00 0.00 0.00 99 1014.3
20260905043551 78 228 0.0 0.0 0.00 0.00 0.00 99 1014.3
20260905042651 78 228 0.0 0.0 0.00 0.00 0.00 99 1014.3
20260905042351 78 228 0.0 0.0 0.00 0.00 0.00 99 1014.3
20260905042051 78 228 0.0 0.0 0.00 0.00 0.00 99 1014.3
20260905041751 78 228 0.0 0.0 0.00 0.00 0.00 99 1014.3
20260905041451 78 228 0.0 0.0 0.00 0.00 0.00 99 1014.3
20260905040851 78 228 0.0 0.0 0.00 0.00 0.00 99 1014.3
20260905040551 78 228 0.0 0.0 0.00 0.00 0.00 99 1014.3
20260905040251 78 228 0.0 0.0 0.00 0.00 0.00 99 1014.3
20260905035951 78 228 0.0 0.0 0.00 0.00 0.00 99 1014.3
20260905035352 78 228 0.0 0.0 0.00 0.00 0.00 99 1014.3
20260905035126 78 226 0.0 0.0 0.00 0.00 0.00 99 1014.3
20260905035051 78 228 0.0 0.0 0.00 0.00 0.00 99 1014.3
20260905034751 78 226 0.0 0.0 0.00 0.00 0.00 99 1014.3
20260905034451 78 228 0.0 0.0 0.00 0.00 0.00 97 1014.3
20260905033851 80 228 0.0 0.0 0.00 0.00 0.00 95 1014.3
20260905033551 80 228 0.0 0.0 0.00 0.00 0.00 95 1014.3
20260905032951 80 228 0.0 0.0 0.00 0.00 0.00 93 1014.3
20260905032351 80 228 0.0 0.0 0.00 0.00 0.00 93 1014.2
20260905032052 80 228 0.0 0.0 0.00 0.00 0.00 93 1014.2
20260905031751 80 228 0.0 0.0 0.00 0.00 0.00 93 1014.2
20260905031451 80 228 0.0 0.0 0.00 0.00 0.00 91 1014.2
20260905030851 80 228 0.0 0.0 0.00 0.00 0.00 88 1014.2
20260905030551 80 228 0.0 0.0 0.00 0.00 0.00 88 1014.2
20260905025351 80 228 0.0 0.0 0.00 0.00 0.00 86 1015.3
20260905025051 80 228 0.0 0.0 0.00 0.00 0.00 86 1015.3
20260905024751 80 228 0.0 0.0 0.00 0.00 0.00 86 1015.3
20260905024451 80 228 0.0 0.0 0.00 0.00 0.00 86 1015.2
20260905024152 80 228 0.0 0.0 0.00 0.00 0.00 86 1015.2
20260905023851 82 228 0.0 0.0 0.00 0.00 0.00 84 1014.2
20260905023551 82 228 0.0 0.0 0.00 0.00 0.00 84 1014.2
20260905023251 82 228 0.0 0.0 0.00 0.00 0.00 84 1014.2
20260905022951 82 228 0.0 0.0 0.00 0.00 0.00 84 1014.2
20260905022351 82 228 0.0 0.0 0.00 0.00 0.00 82 1014.2
20260905022051 82 228 0.0 0.0 0.00 0.00 0.00 82 1014.2
20260905021751 82 231 0.0 0.0 0.00 0.00 0.00 82 1014.2
20260905021451 82 228 0.0 0.0 0.00 0.00 0.00 80 1014.1
20260905020851 82 228 0.0 0.0 0.00 0.00 0.00 80 1014.1
20260905020551 82 228 0.0 0.0 0.00 0.00 0.00 80 1014.1
20260905020251 82 228 0.0 0.0 0.00 0.00 0.00 78 1014.1
20260905015951 82 228 0.0 0.0 0.00 0.00 0.00 78 1014.1
20260905015351 82 228 0.0 0.0 0.00 0.00 0.00 76 1014.1
20260905015051 82 228 0.0 0.0 0.00 0.00 0.00 76 1014.1
20260905014752 82 228 0.0 0.0 0.00 0.00 0.00 74 1014.1
20260905014151 84 228 0.0 0.0 0.00 0.00 0.00 74 1014.1
20260905013851 84 229 0.0 0.0 0.00 0.00 0.00 71 1014.1
20260905013551 84 229 0.0 0.0 0.00 0.00 0.00 71 1014.1
20260905013251 84 228 0.0 0.0 0.00 0.00 0.00 71 1014.1
20260905012951 84 228 0.0 0.0 0.00 0.00 0.00 69 1014.1
20260905012351 84 228 0.0 0.0 0.00 0.00 0.00 69 1014.1
20260905011751 84 228 0.0 0.0 0.00 0.00 0.00 69 1014.1
20260905011451 84 228 0.0 0.0 0.00 0.00 0.00 69 1014.0
20260905010551 86 228 0.0 0.0 0.00 0.00 0.00 67 1014.0
20260905010251 86 228 0.0 0.0 0.00 0.00 0.00 67 1014.0
20260905005951 86 228 0.0 0.0 0.00 0.00 0.00 67 1014.0
20260905005351 86 228 0.0 0.0 0.00 0.00 0.00 65 1014.0
20260905005051 86 228 0.0 0.0 0.00 0.00 0.00 65 1014.0
20260905004751 86 228 0.0 0.0 0.00 0.00 0.00 65 1014.0
20260905004451 86 228 0.0 0.0 0.00 0.00 0.00 65 1014.0
20260905003851 86 228 0.0 0.0 0.00 0.00 0.00 63 1014.0
20260905003553 86 228 0.0 0.0 0.00 0.00 0.00 63 1014.0
20260905003251 87 228 0.0 0.0 0.00 0.00 0.00 63 1013.9
20260905002951 87 228 0.0 0.0 0.00 0.00 0.00 63 1013.9
20260905002351 87 228 0.0 0.0 0.00 0.00 0.00 63 1013.9
20260905002051 87 228 0.0 0.0 0.00 0.00 0.00 63 1013.9
20260905001751 89 228 0.0 0.0 0.00 0.00 0.00 63 1013.9
20260905001451 89 228 0.0 0.0 0.00 0.00 0.00 61 1013.9
20260905001152 89 228 0.0 0.0 0.00 0.00 0.00 61 1013.9
20260905000851 89 228 0.0 0.0 0.00 0.00 0.00 61 1013.8
20260905000551 89 228 0.0 0.0 0.00 0.00 0.00 61 1013.8
20260905000251 89 228 0.0 0.0 0.00 0.00 0.00 61 1013.8
20260904235951 91 228 0.0 0.0 0.00 0.00 0.00 61 1013.8
20260904235051 91 228 0.0 0.0 0.00 0.00 0.00 59 1013.8
20260904234751 91 228 0.0 0.0 0.00 0.00 0.00 59 1013.7
20260904234451 93 228 0.0 0.0 0.00 0.00 0.00 59 1013.7
20260904234153 93 228 0.0 0.0 0.00 0.00 0.00 59 1013.7
20260904233851 93 228 0.0 0.0 0.00 0.00 0.00 59 1012.7
20260904233551 93 228 0.0 0.0 0.00 0.00 0.00 59 1012.7
20260904233251 93 228 0.0 0.0 0.00 0.00 0.00 59 1012.7
20260904232953 93 228 0.0 0.0 0.00 0.00 0.00 59 1012.6
20260904232351 93 228 0.0 0.0 0.00 0.00 0.00 59 1013.7
20260904232052 93 228 0.0 0.0 0.00 0.00 0.00 59 1013.7
20260904231751 93 228 0.0 0.0 0.00 0.00 0.00 59 1013.7
20260904230851 93 228 0.0 0.0 0.00 0.00 0.00 59 1013.7
20260904230553 93 228 0.0 0.0 0.00 0.00 0.00 59 1013.7
20260904230252 93 226 0.0 0.0 0.00 0.00 0.00 59 1013.6
20260904225951 95 210 0.0 1.7 0.00 0.00 0.00 59 1013.6
20260904225351 95 210 0.0 0.0 0.00 0.00 0.00 59 1013.6
20260904225053 95 210 0.0 0.0 0.00 0.00 0.00 59 1013.6
20260904224753 95 203 0.0 1.7 0.00 0.00 0.00 59 1013.6
20260904223851 96 190 0.0 0.0 0.00 0.00 0.00 59 1013.6
20260904223553 96 190 0.0 0.0 0.00 0.00 0.00 59 1013.6
20260904223253 96 327 0.0 0.0 0.00 0.00 0.00 57 1013.5
20260904222951 96 327 0.0 0.0 0.00 0.00 0.00 57 1013.5
20260904222353 98 344 0.0 0.0 0.00 0.00 0.00 57 1013.5
20260904222051 98 344 0.0 0.0 0.00 0.00 0.00 57 1013.5
20260904221751 98 348 0.0 0.0 0.00 0.00 0.00 57 1013.5
20260904221451 98 329 0.0 0.0 0.00 0.00 0.00 57 1013.4
20260904220851 98 313 0.0 0.0 0.00 0.00 0.00 57 1013.5
20260904220551 98 313 0.0 0.0 0.00 0.00 0.00 57 1013.5
20260904220251 98 319 0.0 0.0 0.00 0.00 0.00 57 1013.5
20260904215951 98 319 0.0 0.0 0.00 0.00 0.00 57 1013.4
20260904215354 98 319 0.0 0.0 0.00 0.00 0.00 57 1013.4
20260904215053 98 319 0.0 0.0 0.00 0.00 0.00 57 1013.4
20260904214753 98 319 0.0 1.7 0.00 0.00 0.00 57 1013.4
20260904214453 98 256 0.0 0.0 0.00 0.00 0.00 57 1013.4
20260904213851 98 324 0.0 0.0 0.00 0.00 0.00 57 1013.4
20260904213553 98 324 0.0 0.0 0.00 0.00 0.00 57 1013.4
20260904213251 98 0 0.0 2.6 0.00 0.00 0.00 57 1013.5
20260904212953 98 227 0.0 0.0 0.00 0.00 0.00 57 1013.5
20260904212351 98 253 0.0 0.0 0.00 0.00 0.00 57 1013.4
20260904211751 98 271 0.0 0.0 0.00 0.00 0.00 57 1013.4
20260904211451 98 230 0.0 0.0 0.00 0.00 0.00 57 1013.4
20260904210853 98 310 0.0 0.0 0.00 0.00 0.00 57 1013.4
20260904210552 98 310 0.0 0.0 0.00 0.00 0.00 57 1013.4
20260904210251 100 245 0.0 1.7 0.00 0.00 0.00 57 1013.4
20260904205951 100 357 0.0 0.0 0.00 0.00 0.00 57 1013.4
20260904205351 100 326 0.0 2.6 0.00 0.00 0.00 57 1013.4
20260904205051 100 326 0.0 2.6 0.00 0.00 0.00 57 1013.4
20260904204751 100 320 0.0 0.0 0.00 0.00 0.00 57 1013.4
20260904203851 98 322 0.0 2.6 0.00 0.00 0.00 57 1014.4
20260904203551 98 322 0.0 2.6 0.00 0.00 0.00 57 1014.4
20260904203254 98 311 0.0 1.7 0.00 0.00 0.00 57 1014.4
20260904202652 98 262 0.0 3.5 0.00 0.00 0.00 57 1014.4
20260904202351 98 248 0.0 3.5 0.00 0.00 0.00 57 1014.5
20260904202051 98 248 0.0 3.5 0.00 0.00 0.00 57 1014.5
20260904201751 98 299 0.0 0.0 0.00 0.00 0.00 57 1014.5
20260904201453 96 0 0.0 2.6 0.00 0.00 0.00 57 1014.5
20260904201152 96 0 0.0 2.6 0.00 0.00 0.00 57 1014.5
20260904200851 96 221 0.0 0.0 0.00 0.00 0.00 57 1014.5
20260904200553 96 221 0.0 0.0 0.00 0.00 0.00 57 1014.5
20260904200251 96 204 0.0 0.0 0.00 0.00 0.00 59 1014.6
20260904195953 95 204 0.0 1.7 0.00 0.00 0.00 59 1014.6
20260904195351 95 211 0.0 0.0 0.00 0.00 0.00 59 1014.6
20260904195051 95 211 0.0 0.0 0.00 0.00 0.00 59 1014.6
20260904194753 95 161 0.0 0.0 0.00 0.00 0.00 59 1014.6
20260904194453 93 164 0.0 0.0 0.00 0.00 0.00 59 1014.7
20260904193853 93 189 0.0 0.0 0.00 0.00 0.00 61 1015.7
20260904193251 91 131 0.0 0.0 0.00 0.00 0.00 61 1015.8
20260904192951 91 207 0.0 1.7 0.00 0.00 0.00 61 1015.8
20260904192652 91 207 0.0 1.7 0.00 0.00 0.00 61 1015.8
20260904192351 91 252 0.0 1.7 0.00 0.00 0.00 61 1015.8
20260904192051 91 252 0.0 1.7 0.00 0.00 0.00 61 1015.8
20260904191751 91 206 0.0 3.5 0.00 0.00 0.00 61 1015.8
20260904191453 91 202 0.0 0.0 0.00 0.00 0.00 61 1015.8
20260904191152 91 202 0.0 0.0 0.00 0.00 0.00 61 1015.8
20260904190851 93 156 0.0 1.7 0.00 0.00 0.00 61 1015.7
20260904190551 93 156 0.0 1.7 0.00 0.00 0.00 61 1015.7
20260904190251 93 307 0.0 0.0 0.00 0.00 0.00 59 1015.7
20260904185951 95 309 0.0 0.0 0.00 0.00 0.00 59 1015.7
20260904185652 95 309 0.0 0.0 0.00 0.00 0.00 59 1015.7
20260904185351 95 320 0.0 0.0 0.00 0.00 0.00 59 1015.7
20260904185051 95 320 0.0 0.0 0.00 0.00 0.00 59 1015.7
20260904184751 95 338 0.0 1.7 0.00 0.00 0.00 59 1015.6
20260904184451 96 5 0.0 0.0 0.00 0.00 0.00 59 1015.6
20260904184153 96 5 0.0 0.0 0.00 0.00 0.00 59 1015.6
20260904183851 96 0 0.0 0.0 0.00 0.00 0.00 59 1015.6
20260904183551 96 0 0.0 0.0 0.00 0.00 0.00 59 1015.6
20260904182951 98 1 0.0 1.7 0.00 0.00 0.00 57 1015.5
20260904182351 98 339 0.0 4.3 0.00 0.00 0.00 57 1015.5
20260904181751 98 277 0.0 3.5 0.00 0.00 0.00 57 1015.5
20260904181451 98 357 0.0 3.5 0.00 0.00 0.00 57 1015.5
20260904181152 98 357 0.0 3.5 0.00 0.00 0.00 57 1015.5
20260904180553 98 153 0.0 3.5 0.00 0.00 0.00 57 1015.5
20260904180253 98 256 0.0 0.0 0.00 0.00 0.00 57 1015.5
20260904175951 98 257 0.0 0.0 0.00 0.00 0.00 57 1015.5
20260904175652 98 257 0.0 0.0 0.00 0.00 0.00 57 1015.5
20260904175351 98 303 0.0 3.5 0.00 0.00 0.00 57 1016.5
20260904175053 98 303 0.0 3.5 0.00 0.00 0.00 57 1016.5
20260904174751 98 323 0.0 0.0 0.00 0.00 0.00 57 1016.5
20260904174154 96 308 0.0 2.6 0.00 0.00 0.00 57 1016.5
20260904173851 96 254 0.0 0.0 0.00 0.00 0.00 57 1016.6
20260904173551 96 254 0.0 0.0 0.00 0.00 0.00 57 1016.6
20260904173253 96 285 0.0 1.7 0.00 0.00 0.00 57 1016.6